TimeCST,TemperatureF,Dew PointF,Humidity,Sea Level PressureIn,VisibilityMPH,Wind Direction,Wind SpeedMPH,Gust SpeedMPH,PrecipitationIn,Events,Conditions,WindDirDegrees,DateUTC
12:53 AM,5.0,-0.0,80,30.06,10.0,NNE,5.8,-,N/A,,Overcast,20,2013-02-04 06:53:00
1:53 AM,5.0,-0.0,80,30.06,10.0,NNE,4.6,-,N/A,,Overcast,30,2013-02-04 07:53:00
2:53 AM,6.1,-0.9,73,30.07,10.0,NE,5.8,-,N/A,,Overcast,50,2013-02-04 08:53:00
5:53 AM,-2.0,-6.0,83,30.10,10.0,Calm,Calm,-,N/A,,Mostly Cloudy,0,2013-02-04 11:53:00
6:53 AM,-2.0,-6.0,83,30.10,10.0,Calm,Calm,-,N/A,,Overcast,0,2013-02-04 12:53:00
7:53 AM,1.9,-6.0,69,30.10,10.0,East,3.5,-,N/A,,Overcast,90,2013-02-04 13:53:00
8:53 AM,1.9,-6.0,69,30.12,10.0,East,3.5,-,N/A,,Overcast,100,2013-02-04 14:53:00
9:53 AM,3.0,-5.1,69,30.10,10.0,SSE,3.5,-,N/A,,Overcast,160,2013-02-04 15:53:00
10:53 AM,5.0,-2.9,70,30.08,10.0,SSE,5.8,-,N/A,,Overcast,160,2013-02-04 16:53:00
11:53 AM,7.0,-2.0,67,30.06,10.0,SSW,10.4,-,N/A,,Overcast,210,2013-02-04 17:53:00
12:53 PM,8.1,-0.0,70,29.99,10.0,South,13.8,-,N/A,,Clear,190,2013-02-04 18:53:00
1:53 PM,8.1,-0.0,70,30.03,10.0,SSW,6.9,-,N/A,,Clear,210,2013-02-04 19:53:00
2:53 PM,8.1,1.0,73,30.00,10.0,SSW,6.9,-,N/A,,Clear,200,2013-02-04 20:53:00
3:53 PM,9.0,3.0,77,29.99,10.0,SSW,8.1,-,N/A,,Partly Cloudy,200,2013-02-04 21:53:00
4:53 PM,8.1,1.9,76,29.93,10.0,South,13.8,-,N/A,,Scattered Clouds,170,2013-02-04 22:53:00
5:53 PM,8.1,3.0,80,29.90,10.0,South,10.4,-,N/A,,Overcast,170,2013-02-04 23:53:00
6:53 PM,9.0,5.0,84,29.90,10.0,South,6.9,-,N/A,,Overcast,190,2013-02-05 00:53:00
7:05 PM,10.4,5.0,79,29.78,10.0,South,8.1,-,N/A,,Overcast,190,2013-02-05 01:05:00
7:37 PM,10.4,6.8,85,29.76,4.0,South,10.4,-,0.00,Snow,Light Snow,180,2013-02-05 01:37:00
7:53 PM,10.9,6.1,81,29.86,2.5,South,11.5,-,0.00,Snow,Light Snow,180,2013-02-05 01:53:00
8:25 PM,10.4,6.8,85,29.73,1.8,South,13.8,-,0.00,Snow,Light Snow,180,2013-02-05 02:25:00
8:41 PM,12.2,8.6,85,29.71,3.0,South,15.0,-,0.00,Snow,Light Snow,190,2013-02-05 02:41:00
8:51 PM,12.2,8.6,85,29.71,7.0,South,13.8,-,0.00,Snow,Light Snow,190,2013-02-05 02:51:00
8:53 PM,12.9,9.0,84,29.81,7.0,South,15.0,-,0.00,Snow,Light Snow,190,2013-02-05 02:53:00
9:49 PM,14.0,10.4,86,29.67,2.5,South,15.0,-,0.00,Snow,Light Snow,190,2013-02-05 03:49:00
9:50 PM,14.0,10.0,84,29.76,2.5,South,16.1,-,0.00,Snow,Light Snow,180,2013-02-05 03:50:00
10:04 PM,15.8,10.4,79,29.65,3.0,South,13.8,-,0.00,Snow,Light Snow,190,2013-02-05 04:04:00
10:53 PM,16.0,12.0,84,29.73,6.0,SSW,13.8,-,0.00,,Overcast,210,2013-02-05 04:53:00
11:09 PM,15.8,12.2,86,29.63,5.0,SSW,13.8,-,N/A,,Overcast,210,2013-02-05 05:09:00
11:30 PM,17.6,12.2,79,29.62,7.0,SSW,12.7,-,N/A,,Scattered Clouds,210,2013-02-05 05:30:00
11:53 PM,17.1,14.0,88,29.70,7.0,SSW,16.1,23.0,N/A,,Partly Cloudy,210,2013-02-05 05:53:00